www.pogodaiklimat.ru

Погода и климат >> Архив погоды >> Мексика >> Manzanillo


ПОГОДА в Manzanillo

  • Прогноз погоды в Manzanillo
  • Монитор погоды в Manzanillo
  • Климат города

АРХИВ ПОГОДЫ в Manzanillo

Время (UTC), дата Ветер
(напр.,м/с)
 
Видим.   Явления Облачность Т
(С)
Тd
(С)
f
(%)
Тe
(С)
Тes
(С)
Комфортность P
(гПа)
Po
(гПа)
Тmin
(С)
Tmax
(С)
R
(мм)
R24
(мм)
S
(см)
00 14.05 З 3 7000 м мгла {туман} ясно +28.2 +24.0 78 +39 +41 очень
душно
1009.4 1009.0 +24.8 +30.9
03 14.05 З 3 6000 м мгла {туман} ясно +26.6 +24.3 87 +37 +37 очень
душно
1011.7 1011.3
06 14.05 З 2 6000 м мгла {туман} ясно +25.9 +24.0 89 +36 +36 очень
душно
1012.7 1012.3 +24.8 +30.9
09 14.05 С 1 6000 м мгла {туман} ясно +25.2 +21.6 80 +32 +32 очень
душно
1013.0 1012.6
12 14.05 С 1 6000 м мгла {туман} ясно +24.8 +22.3 86 +32 +32 очень
душно
1011.6 1011.2 +24.8 +30.9
15 14.05 ЮВ 1 6000 м мгла {туман} ясно +28.0 +21.6 68 +36 +44 очень
душно
1011.0 1010.6
18 14.05 З 2 6000 м мгла {туман} ясно +29.8 +23.7 70 +41 +62 опасность
перегрева
1011.4 1011.1 +24.6 +31.0
21 14.05 З 3 6000 м мгла {туман} ясно +29.4 +24.6 75 +42 +56 опасность
перегрева
1010.1 1009.7
00 15.05 ЮЗ 2 7000 м мгла {туман} 1/1 300 м
[Cu med, cong]
+28.6 +24.0 76 +40 +42 очень
душно
1010.0 1009.6 +24.6 +31.0
03 15.05 З 3 6000 м мгла {туман} ясно +26.2 +23.8 87 +36 +36 очень
душно
1011.1 1010.7
06 15.05 ЮЗ 1 6000 м мгла {туман} ясно +25.8 +23.8 89 +35 +35 очень
душно
1012.3 1011.9 +24.6 +31.0
09 15.05 С 1 6000 м мгла {туман} ясно +24.8 +21.6 82 +32 +32 очень
душно
1013.0 1012.6
12 15.05 СВ 1 6000 м мгла {туман} ясно +24.2 +22.0 88 +31 +31 очень
душно
1010.7 1010.3 +24.2 +31.0
15 15.05 З 1 6000 м мгла {туман} ясно +28.2 +22.7 72 +37 +46 очень
душно
1011.7 1011.3
18 15.05 З 4 6000 м мгла {туман} ясно +29.1 +24.0 74 +40 +55 опасность
солнечного
удара
1011.5 1011.1 +23.8 +30.1
21 15.05 З 4 6000 м мгла {туман} 1/1 600 м
[Cu hum]
+28.9 +24.2 76 +40 +51 опасность
солнечного
удара
1009.3 1008.9
00 16.05 ЮЗ 3 6000 м мгла {туман} ясно +27.8 +24.3 81 +39 +41 очень
душно
1007.8 1007.4 +23.8 +30.2
03 16.05 С 2 6000 м мгла {туман} ясно +26.6 +23.9 85 +37 +37 очень
душно
1009.0 1008.6
06 16.05 Ю 2 6000 м мгла {туман} 1/1 300 м
[Cu hum]
+26.4 +23.4 84 +36 +36 очень
душно
1011.2 1010.8 +23.8 +30.2
09 16.05 ЮВ 1 6000 м мгла {туман} ясно +25.7 +23.7 89 +35 +35 очень
душно
1010.5 1010.1
12 16.05 В 1 6000 м мгла {туман} 3/0 2000 м
[Ac trans]
+25.2 +23.4 90 +34 +34 очень
душно
1011.4 1011.0 +25.2 +30.2
15 16.05 В 1 6000 м мгла {туман} ясно +28.2 +22.4 71 +37 +45 очень
душно
1012.9 1012.5
18 16.05 Ю 2 6000 м мгла {туман} ясно +31.2 +23.8 65 +43 +64 опасность
перегрева
1011.7 1011.3 +24.9 +32.6
21 16.05 З 3 6000 м мгла {туман} ясно +31.0 +24.3 68 +43 +58 опасность
перегрева
1009.7 1009.3
00 17.05 З 3 6000 м мгла {туман} ясно +29.8 +23.9 71 +41 +43 опасность
перегрева
1008.7 1008.3 +24.9 +33.3
03 17.05 СЗ 1 6000 м мгла {туман} 6/0 2000 м
[Ac trans]
+27.6 +24.2 82 +39 +39 очень
душно
1011.7 1011.3
06 17.05 З 1 6000 м мгла {туман} ясно +26.7 +23.6 83 +36 +36 очень
душно
1012.5 1012.1 +24.9 +33.3
09 17.05 С 1 6000 м мгла {туман} ясно +25.4 +23.7 90 +35 +35 очень
душно
1012.5 1012.1
12 17.05 С 1 6000 м мгла {туман} 5/5 600 м
[Sc]
+25.0 +21.7 82 +32 +32 очень
душно
1010.3 1009.9 +25.0
15 17.05 ЮВ 1 6000 м мгла {туман} 5/4 600 м
[Sc Ac trans]
+27.6 +23.2 77 +37 +42 очень
душно
1012.7 1012.3
21 17.05 Ю 2 6000 м мгла {туман} ясно +31.1 +24.3 67 +43 +60 опасность
перегрева
1009.9 1009.5
00 18.05 З 3 6000 м мгла {туман} ясно +30.1 +24.6 72 +42 +45 опасность
перегрева
1009.1 1008.7 +24.8 +34.0
03 18.05 З 2 6000 м мгла {туман} ясно +27.8 +24.0 80 +39 +39 очень
душно
1010.1 1009.7
06 18.05 штиль 0 6000 м мгла {туман} ясно +27.0 +24.0 84 +37 +37 очень
душно
1010.7 1010.3 +24.8 +34.0
09 18.05 штиль 0 6000 м мгла {туман} ясно +26.2 +24.2 89 +36 +36 очень
душно
1011.4 1011.0
15 18.05 В 1 6000 м мгла {туман} ясно +28.8 +23.7 74 +39 +48 очень
душно
1012.1 1011.7
18 18.05 ЮЗ 2 6000 м мгла {туман} ясно +32.6 +23.4 58 +43 +64 опасность
перегрева
1011.2 1010.8 +25.4 +34.0
21 18.05 Ю 2 6000 м мгла {туман} ясно +32.2 +24.3 63 +44 +61 опасность
перегрева
1009.9 1009.5
00 19.05 ЮЗ 2 6000 м мгла {туман} ясно +31.0 +23.6 65 +42 +45 опасность
перегрева
1008.3 1007.9 +25.4 +34.2
03 19.05 З 2 6000 м мгла {туман} ясно +27.3 +24.5 85 +39 +39 очень
душно
1009.1 1008.7
06 19.05 З 2 6000 м мгла {туман} ясно +27.1 +24.4 85 +38 +38 очень
душно
1010.9 1010.5 +25.4 +34.2
09 19.05 З 1 6000 м мгла {туман} ясно +26.1 +24.6 91 +37 +37 очень
душно
1009.8 1009.4
12 19.05 З 1 6000 м мгла {туман} ясно +25.9 +24.0 89 +36 +36 очень
душно
1009.2 1008.9 +25.9 +34.2
15 19.05 СЗ 1 6000 м мгла {туман} 3/0 1500 м
[Ac trans]
+27.6 +22.7 75 +37 +44 очень
душно
1011.1 1010.7
18 19.05 С 1 6000 м мгла {туман} ясно +30.2 +23.4 67 +41 +65 опасность
перегрева
1010.4 1010.0 +25.6 +31.8
21 19.05 З 4 7000 м мгла {туман} ясно +30.9 +24.6 69 +44 +55 опасность
перегрева
1008.5 1008.1
00 20.05 ЮЗ 3 7000 м мгла {туман} ясно +29.7 +23.9 71 +41 +43 опасность
перегрева
1008.3 1007.9 +25.6 +32.1
03 20.05 З 1 6000 м мгла {туман} 1/1 600 м
[St]
+27.5 +24.3 83 +39 +39 очень
душно
1009.5 1009.1
06 20.05 С 1 6000 м мгла {туман} 3/3 300 м
[St]
+27.5 +24.4 83 +39 +39 очень
душно
1012.1 1011.7 +25.6 +32.1
09 20.05 С 1 6000 м мгла {туман} ясно +26.9 +23.5 82 +37 +37 очень
душно
1010.8 1010.4
12 20.05 СЗ 1 6000 м мгла {туман} 5/5 600 м
[Sc]
+26.4 +23.4 84 +36 +36 очень
душно
1010.4 1010.0 +26.4 +32.1
15 20.05 Ю 1 6000 м мгла {туман} ясно +30.3 +22.7 64 +40 +48 очень
душно
1012.1 1011.8
18 20.05 ЮЗ 3 6000 м мгла {туман} ясно +31.3 +23.6 64 +42 +60 опасность
перегрева
1012.6 1012.3 +25.9 +32.4

 

Местоположение метеостанции Manzanillo (Мексика): широта 19.05 долгота -104.30 высота над уровнем моря 3 м.

В архиве по умолчанию представлена погода в Manzanillo за последнюю неделю. Архивные данные за месяц целиком и за предыдущие месяцы, начиная с января 2011 года, Вы можете получить, выбрав интересующий диапазон дат из раскрывающегося списка и нажав кнопку "Ввод!".


*Определитесь, кто Вы:
робот инопланетянин человек

Внимание! Время в таблицах - всемирное. Для получения местного времени необходимо прибавить поправку, которая в Manzanillo равна -6 ч.

Смотрите также архив погоды в соседних городах и на ближайших метеорологических станциях:

Погода в Colima (Мексика) (88 км)
Погода в Ciudad Guzman (Мексика) (120 км)
Погода в Guadalajara (Мексика) (208 км)
Погода в Zamora (Мексика) (234 км)
Погода в Tepic (Мексика) (280 км)
Погода в Morelia (Мексика) (343 км)
Погода в Colotlan (Мексика) (356 км)
Погода в Lagos De Moreno (Мексика) (357 км)
Погода в Aguascalientes (Мексика) (377 км)
Погода в Huejucar (Мексика) (383 км)

Пояснения к столбцам:

Ветер - указаны скорость ветра в м/с - средняя за 10 мин, порывы в срок и между сроками (в фигурных скобках) и направление, откуда дует ветер: С - северный, СВ - северо-восточный, В - восточный, ЮВ - юго-восточный, Ю - южный, ЮЗ - юго-западный, З - западный, СЗ - северо-западный.
Видимость - горизонтальная дальность видимости в метрах или километрах. При видимости от 1 до 10 км при отсутствии осадков обычно наблюдается дымка, при ухудшении видимости до 1 км и менее - туман. В сухую погоду видимость может ухудшаться дымом, пылью или мглою.
Явления - указаны атмосферные явления, наблюдавшиеся в срок или в последний час перед сроком; фигурными скобками обозначены явления, наблюдавшиеся между сроками (за 1-3 часа до срока); квадратными скобками обозначены град или гололедные отложения с указанием их диаметра в мм.
Облачность - указаны через наклонную черту общая и нижняя облачность в баллах и высота нижней границы облаков в метрах; квадратными скобками обозначены формы облаков: Ci - перистые, Cs - перисто-слоистые, Cc - перисто-кучевые, Ac - высококучевые, As - высокослоистые, Sc - слоисто-кучевые, Ns - слоисто-дождевые, Cu - кучевые, Cb - кучево-дождевые. Подробнее классификацию облаков см. в Атласе облаков (PDF).
T - Температура воздуха - температура, измеренная на высоте 2 м над землей.
Td - Температура точки росы - температура, при понижении до которой содержащийся в воздухе водяной пар достигнет насыщения.
f - Относительная влажность воздуха - влажноcть воздуха, измеренная на высоте 2 м над землей.
Te - Эффективная температура - температура, которую ощущает одетый по сезону человек в тени. Характеристика душности погоды. При расчете учитывается влияние влажности воздуха и скорости ветра на теплоощущения человека.
Tes - Эффективная температура на солнце - температура, которую ощущает человек, с поправкой на солнечный нагрев. Характеристика знойности погоды. Зависит от высоты солнца над горизонтом, облачности и скорости ветра. Ночью, в пасмурную погоду, а также при ветре 12 м/с и более поправка равна нулю.
P - Атмосферное давление - приведенное к уровню моря атмосферное давление.
Po - Атмосферное давление - измеренное на уровне метеостанции атмосферное давление.
Tmin - Минимальная температура - минимум температуры воздуха на высоте 2 м над землей.
Tmax - Максимальная температура - максимум температуры воздуха на высоте 2 м над землей.
R - Количество осадков - Количество выпавших осадков за период времени, мм. При наведении курсора мыши на число - период времени, за который выпало указанное количество осадков.
R24 - Количество осадков - Количество выпавших осадков за 24 часа, мм.
S - Снежный покров - Высота снежного покрова, см. При наведении курсора мыши на число - состояние снежного покрова и степень покрытия местности в баллах.